Home   Weather   Tallinn   Past weeks
Flag for Estonia

Past Weather in Tallinn, Estonia — Yesterday and Last 2 Weeks

Now
37 °F

Clear.


Feels Like: 29 °F
Forecast: 40 / 31 °F
Wind: 13 mph from Northwest

Location: Tallinn

Current Time: Mar 22, 2019 at 7:23:20 pm

Latest Report: Mar 22, 2019 at 6:50 pm


Visibility: 10 mi

Pressure: 30.36 "Hg

Humidity: 70%

Dew Point: 28 °F

Location of TallinnLocation

Past Weather in Tallinn — Graph

°F

Tallinn Temperature Yesterday

Maximum temperature yesterday: 46 °F (at 1:20 pm)
Minimum temperature yesterday: 32 °F (at 4:20 am)
Average temperature yesterday: 38 °F

High & Low Weather Summary for the Past Weeks

 TemperatureHumidityPressure
High46 °F (Mar 21, 1:20 pm)100% (Mar 7, 5:20 pm)30.33 "Hg (Mar 7, 5:20 pm)
Low23 °F (Mar 11, 1:50 am)42% (Mar 22, 2:50 pm)28.97 "Hg (Mar 8, 10:50 pm)
Average35 °F86%29.53 "Hg
* Reported Mar 7 5:20 pm — Mar 22 5:50 pm, Tallinn. Weather by CustomWeather, © 2019

Note: Actual official high and low records may vary slightly from our data, if they occured in-between our weather recording intervals... More about our weather records

Advertising

Tallinn Weather History for the Previous 24 Hours

Scroll right to see more
 ConditionsComfort  
Time TempWeatherWind HumidityBarometerVisibility
5:50 pm
Fri, Mar 22
39 °FSunny.14 mph65%30.33 "Hg10 mi
5:20 pm41 °FSunny.14 mph57%30.33 "Hg10 mi
4:50 pm41 °FSunny.15 mph57%30.33 "Hg10 mi
4:20 pm41 °FSunny.14 mph57%30.33 "Hg10 mi
3:50 pm41 °FSunny.16 mph49%30.33 "Hg10 mi
3:20 pm43 °FSunny.16 mph46%30.33 "Hg10 mi
2:50 pm43 °FSunny.16 mph42%30.30 "Hg10 mi
1:50 pm43 °FSunny.18 mph49%30.33 "Hg10 mi
1:20 pm41 °FPassing clouds.17 mph53%30.30 "HgN/A
12:50 pm41 °FSunny.18 mph53%30.30 "Hg10 mi
12:20 pm41 °FSunny.20 mph53%30.30 "Hg10 mi
11:50 am39 °FSunny.17 mph56%30.27 "Hg10 mi
11:20 am39 °FSunny.16 mph56%30.27 "Hg10 mi
10:50 am39 °FSunny.16 mph61%30.27 "Hg10 mi
10:20 am37 °FSunny.17 mph60%30.24 "Hg10 mi
9:50 am37 °FSunny.15 mph65%30.24 "Hg10 mi
9:20 am37 °FSunny.18 mph65%30.24 "Hg10 mi
8:50 am36 °FSunny.20 mph65%30.21 "Hg10 mi
8:20 am36 °FSunny.16 mph65%30.21 "Hg10 mi
7:50 am36 °FSunny.16 mph65%30.18 "Hg10 mi
7:20 am36 °FSunny.17 mph65%30.18 "Hg10 mi
6:50 am36 °FSunny.17 mph65%30.15 "Hg10 mi
6:20 am36 °FSunny.17 mph65%30.12 "Hg10 mi
5:50 am36 °FClear.15 mph65%30.12 "Hg10 mi
5:20 am36 °FClear.16 mph65%30.09 "Hg10 mi
4:50 am36 °FClear.14 mph65%30.09 "Hg10 mi
4:20 am36 °FClear.16 mph65%30.07 "Hg10 mi
3:50 am36 °FClear.15 mph65%30.07 "Hg10 mi
3:20 am37 °FClear.15 mph65%30.04 "Hg10 mi
2:50 am37 °FClear.16 mph65%30.01 "Hg10 mi
2:20 am37 °FClear.14 mph70%30.01 "Hg10 mi
1:50 am39 °FClear.16 mph65%29.98 "Hg10 mi
1:20 am39 °FClear.16 mph70%29.98 "Hg10 mi
12:50 am39 °FClear.15 mph75%29.95 "Hg10 mi
12:20 am39 °FClear.16 mph81%29.95 "Hg10 mi
11:50 pm
Thu, Mar 21
39 °FClear.16 mph87%29.95 "Hg10 mi
11:20 pm39 °FPassing clouds.12 mph93%29.92 "HgN/A
10:50 pm39 °FPassing clouds.13 mph93%29.92 "HgN/A
10:20 pm39 °FPassing clouds.13 mph93%29.89 "HgN/A
9:50 pm39 °FLight rain. Mostly cloudy.14 mph100%29.92 "HgN/A
9:20 pm39 °FLow clouds.15 mph93%29.89 "HgN/A
8:50 pm39 °FLight rain. Passing clouds.13 mph93%29.89 "Hg6 mi
8:20 pm39 °FDrizzle. Fog.15 mph100%29.89 "Hg2 mi
7:50 pm41 °FDrizzle. Fog.12 mph93%29.89 "Hg2 mi
7:20 pm41 °FDrizzle. Fog.12 mph93%29.89 "Hg2 mi
Weather by CustomWeather, © 2019

See weather overview